STARLINK-34956 (65174 NORAD) Tracking and Keplerian Element Data

This shows tracking and keplerian element data for the satellite.

Feedback or suggestion? Click here.




ElementValue
Catalog65174
NameSTARLINK-34956
Epoch Orbit2062
Epoch Day354.06006296
Epoch Year2025
RAAN224.0943
Inclination97.6027
Eccentricity0.0001899
Argument of Perigee61.088
Mean Anonmoly299.0537
Mean Motion15.05665587
Decay Rate2.577E-05
L11 65174U 25175A 25354.06006296 .00002577 00000+0 18270-3 0 9992
L22 65174 97.6027 224.0943 0001899 61.0880 299.0537 15.05665587 20623



Live tracking and technical data element details for STARLINK-34956 (NORAD 65174). STARLINK-34956 can be tracked NOW for your location showing map with azimuth and elevation plus other details from your city location.







IsCatalogInMostPopularTable: catalog: 65174, numindb: 4
Update: records affected: 1



GetName: 65174 STARLINK-34956

Hit Count: updated at: Mon, 09 Feb 2026 09:00:43 GMT